Wetbulb
76.55 75.86 74.05 74.67 74.31 73.90 73.72 73.88 76.84 77.81 77.76 75.01 76.42 76.45 76.29 77.03 77.01 77.88 77.32 77.04 77.12 75.27
76.47 76.23 74.88 76.08 76.52 75.48 76.14 75.90 77.18 77.35 77.43 77.53 77.36 78.03 77.10 74.92 77.15 77.73 77.41 77.44 77.28 76.60
75.73 76.15 76.22 76.56 76.23 76.46 76.55 77.12 76.79 77.30 77.35 77.34 77.64 78.18 78.10 76.26 77.32 77.29 75.97 75.37 77.25 76.97
75.35 75.76 76.28 75.73 76.32 76.63 77.32 77.58 77.68 77.75 77.44 76.97 77.26 77.85 78.53 77.53 76.90 76.92 76.80 76.87 76.41 76.18
75.86 75.86 75.26 75.45 75.72 76.39 76.79 77.44 77.82 76.99 76.27 76.66 76.74 77.64 77.44 76.31 76.12 76.19 75.80 76.02 76.35 75.85
75.45 75.42 75.26 75.41 76.10 76.24 76.53 76.88 77.02 77.16 76.08 76.51 76.51 76.42 77.27 78.07 76.21 76.00 75.91 75.95 76.01 75.64
75.32 75.46 75.44 75.92 75.96 76.19 76.59 76.30 76.58 76.89 77.55 77.47 76.96 76.68 76.13 77.24 76.80 76.11 75.97 76.16 76.20 76.05
76.24 76.40 76.40 76.30 76.33 76.48 76.45 76.27 76.49 76.36 76.75 77.25 77.13 76.40 77.26 76.82 76.38 76.23 75.81 75.82 76.25 76.33
76.31 76.61 76.44 76.52 76.55 76.71 76.47 76.38 75.98 75.95 76.23 76.55 75.95 68.96 68.72 73.21 75.59 75.75 75.51 75.37 76.22 76.70
75.32 75.58 75.75 76.21 76.41 76.46 76.52 76.74 75.94 75.56 75.82 76.12 76.70 66.30 66.81 68.69 75.45 76.07 74.89 76.72 76.41 75.85
75.38 74.96 75.29 75.76 75.84 76.47 76.72 76.41 76.22 75.99 76.13 75.74 76.04 64.60 64.48 67.28 75.44 76.02 75.34 76.20 76.36 76.36
75.27 75.48 75.47 75.41 75.65 76.15 76.10 76.24 76.30 76.44 76.60 76.22 76.21 61.91 62.01 67.86 74.54 74.74 75.52 75.99 74.85 74.71
75.25 74.83 74.49 74.81 75.99 76.26 76.07 75.99 76.00 76.38 76.33 72.00 76.38 59.27 59.86 66.20 74.31 74.27 73.61 70.72 67.41 60.53
74.06 74.56 74.84 74.89 76.82 76.04 75.90 77.06 76.82 76.29 75.70 75.76 73.28 67.09 58.23 58.61 72.77 72.30 69.72 66.33 64.27 62.28
MSLP
1016.51 1017.00 1016.86 1016.88 1016.24 1016.47 1016.32 1016.57 1016.88 1017.56 1017.74 1018.18 1018.24 1018.34 1018.53 1018.41 1018.42 1018.51 1018.46 1018.67 1018.60 1017.91
1016.14 1016.53 1016.21 1016.42 1016.69 1016.49 1016.64 1016.39 1017.11 1017.29 1017.64 1017.77 1018.00 1018.18 1018.34 1018.19 1018.38 1018.54 1018.58 1018.44 1018.54 1018.34
1015.57 1016.06 1016.32 1016.42 1016.57 1016.40 1016.47 1016.69 1016.75 1017.24 1017.39 1017.64 1017.81 1017.91 1018.18 1018.05 1018.25 1018.45 1018.26 1018.02 1018.35 1018.47
1014.91 1015.37 1015.84 1015.96 1016.21 1016.35 1016.53 1016.69 1016.86 1017.05 1017.41 1017.59 1017.60 1017.72 1017.99 1018.01 1018.01 1018.27 1018.23 1018.32 1018.34 1018.37
1014.29 1014.69 1014.95 1015.41 1015.62 1015.93 1016.21 1016.42 1016.63 1016.90 1017.11 1017.31 1017.31 1017.52 1017.76 1017.78 1017.50 1017.98 1018.00 1017.93 1018.10 1018.30
1013.61 1013.98 1014.31 1014.52 1015.02 1015.33 1015.70 1016.01 1016.19 1016.57 1016.64 1016.73 1016.90 1017.11 1017.25 1017.48 1017.57 1017.53 1017.67 1017.67 1017.82 1017.76
1013.08 1013.40 1013.67 1013.94 1014.30 1014.64 1015.02 1015.41 1015.71 1015.93 1016.22 1016.45 1016.44 1016.60 1016.62 1016.93 1017.40 1017.35 1017.40 1017.41 1017.41 1017.51
1012.64 1012.97 1013.32 1013.50 1013.69 1013.95 1014.30 1014.64 1015.03 1015.29 1015.58 1015.79 1015.85 1015.84 1016.17 1016.54 1016.71 1016.92 1017.01 1016.98 1017.00 1017.00
1011.91 1012.48 1012.70 1013.02 1013.30 1013.50 1013.73 1013.97 1014.21 1014.51 1014.88 1015.19 1015.32 1015.27 1015.91 1016.39 1016.54 1016.59 1016.64 1016.63 1016.65 1016.82
1011.37 1011.71 1012.08 1012.32 1012.71 1012.85 1013.10 1013.26 1013.59 1013.87 1014.16 1014.44 1014.87 1015.46 1015.78 1016.24 1016.40 1016.56 1016.34 1016.37 1016.59 1016.58
1010.79 1011.03 1011.35 1011.65 1011.93 1012.16 1012.42 1012.68 1012.80 1013.08 1013.48 1013.92 1014.26 1014.77 1015.34 1015.85 1015.97 1016.02 1015.94 1016.06 1016.39 1016.53
1010.20 1010.29 1010.52 1010.89 1011.19 1011.36 1011.68 1011.89 1012.11 1012.44 1012.78 1013.27 1013.77 1014.55 1015.02 1015.55 1015.27 1015.13 1015.47 1015.90 1016.46 1016.84
1009.78 1009.85 1010.04 1010.26 1010.47 1010.67 1010.90 1011.00 1011.29 1011.87 1012.25 1012.68 1013.30 1014.52 1015.05 1015.40 1015.03 1015.14 1015.71 1016.59 1017.14 1017.43
1009.90 1009.73 1009.84 1010.08 1010.15 1010.23 1010.29 1010.53 1011.19 1011.55 1011.93 1012.48 1013.36 1014.44 1014.88 1015.17 1015.26 1015.42 1016.06 1016.77 1017.61 1018.00
Wind_Speed
10 8 8 7 5 6 5 5 6 7 6 7 6 4 4 5 5 3 4 4 3 7
10 10 8 8 7 7 5 3 6 7 6 6 7 6 5 6 5 3 4 2 4 6
11 11 10 8 9 7 5 7 6 8 8 7 7 7 7 6 7 5 5 5 1 4
11 12 11 10 10 9 8 7 9 9 9 8 9 8 7 6 4 7 6 6 5 6
13 13 13 12 12 11 10 10 8 8 9 10 10 10 11 10 8 8 9 7 5 7
14 14 14 14 13 12 11 11 11 11 11 10 9 9 11 10 10 9 8 7 7 7
14 15 15 14 14 14 13 13 12 11 10 11 11 10 10 10 9 8 8 8 8 8
13 14 14 14 14 14 14 13 13 13 12 11 11 10 10 9 9 8 8 9 9 10
13 14 14 13 14 14 14 14 13 14 13 12 10 6 6 6 8 8 9 9 10 9
14 14 14 13 13 14 15 14 14 14 14 14 13 8 10 9 9 8 10 9 10 7
14 15 15 14 14 14 14 14 13 14 14 14 12 11 11 10 11 9 10 10 9 9
13 14 14 14 15 14 13 13 13 13 14 13 13 9 10 11 11 10 10 7 2 5
11 11 12 13 14 13 12 12 12 13 13 13 12 10 10 8 6 8 5 5 5 9
10 11 11 10 11 11 11 11 10 11 9 8 8 10 11 9 7 6 6 6 4 4
Wind_Direction
210 204 219 211 236 213 209 197 151 195 193 190 201 195 205 225 245 192 243 240 300 305
208 228 229 235 207 208 225 187 192 206 206 197 201 210 192 240 222 241 234 231 232 273
207 215 222 221 229 239 235 228 194 209 213 213 215 210 209 211 212 237 252 251 184 275
207 210 215 223 221 227 222 223 222 224 225 225 225 219 220 241 261 234 246 265 253 264
207 212 209 220 227 224 227 218 218 220 227 231 223 228 223 226 238 221 239 242 262 261
211 214 221 217 217 225 224 231 230 214 231 234 230 232 229 232 230 238 242 250 271 275
220 223 225 222 219 217 218 221 227 232 229 227 229 236 241 229 229 245 249 256 263 274
231 227 226 230 224 221 218 218 224 227 231 232 231 225 213 216 220 242 250 259 262 262
223 226 223 227 229 224 223 217 215 220 229 234 238 203 176 223 247 250 254 258 264 273
228 224 224 225 227 225 224 218 214 219 220 221 228 194 182 185 229 242 260 261 265 262
237 221 223 221 221 223 223 223 217 214 218 227 229 174 183 189 241 238 250 251 259 260
237 236 224 218 224 225 223 221 221 221 217 222 230 158 164 186 242 239 239 239 273 266
251 238 226 225 221 219 218 218 224 220 218 218 228 148 159 199 230 220 199 115 94 48
262 248 240 244 231 222 220 219 215 221 211 203 167 171 173 193 194 195 160 152 140 97